Wind_Speed
36 34 34 34 35 36 37 40 41 41 40 39 43 49 51 50 47 44 43 43 43 42 42 42 42 42 43 44 46 47 47 48 48 47 46 46 46 45 44 43 42 42 41 39 38 36 34 32 30 29 27 25 24 22 20 19 17 15 13 12 11 10 10 11 11 9 8 7 7 7 7 6 5 5 4 4 4 5 6 6 6 6 6 7 8 8 8 8
35 34 34 34 34 36 38 40 42 42 42 42 47 52 52 50 46 44 43 43 44 44 44 43 42 42 42 43 44 45 47 48 48 48 47 46 46 45 44 43 42 42 41 40 38 36 34 32 30 29 27 25 24 22 20 18 16 15 13 12 11 10 10 10 10 10 9 8 7 7 7 7 6 6 5 4 3 4 5 5 6 5 6 6 7 8 8 7
35 34 33 34 34 36 38 41 43 45 45 45 51 54 52 50 47 44 43 43 44 45 45 44 43 42 42 42 43 44 46 48 48 48 48 46 46 45 45 44 43 42 41 40 38 37 35 33 31 29 27 25 23 21 19 17 15 14 13 12 11 11 10 10 10 10 9 8 7 7 6 7 7 7 6 5 4 4 4 5 5 5 5 5 6 8 8 7
36 34 34 34 34 36 39 42 44 47 47 47 52 54 52 50 47 45 44 44 44 44 45 44 44 43 42 42 42 43 45 47 48 49 48 47 46 46 45 44 44 42 41 39 38 37 35 33 31 29 27 24 22 21 19 18 16 14 13 12 12 11 11 11 11 11 10 9 8 7 7 7 7 7 7 6 5 4 4 5 5 5 5 5 5 6 7 7
37 35 35 35 35 36 40 44 46 49 49 49 53 55 52 50 48 47 46 45 45 44 44 44 43 43 42 42 41 43 44 46 48 48 48 47 46 46 45 45 44 42 41 40 38 37 35 33 31 29 27 25 23 21 19 18 16 14 13 12 12 11 11 11 12 12 11 10 9 9 9 8 7 8 7 7 7 5 5 4 5 5 5 5 5 5 6 6
38 37 36 36 35 37 42 46 49 50 51 51 53 54 53 52 49 48 47 46 45 44 44 44 44 43 42 41 40 41 43 44 47 48 48 47 47 46 45 45 44 43 41 40 38 36 35 33 31 30 28 26 24 22 20 18 16 15 14 13 13 12 12 12 12 12 13 12 11 11 11 9 8 9 8 8 8 7 6 5 5 5 5 5 5 5 5 6
40 38 37 37 36 37 42 48 51 51 51 52 52 53 54 53 50 49 48 46 45 45 44 44 44 43 43 42 40 40 41 43 46 47 47 48 47 46 45 45 44 43 41 39 38 36 35 33 31 30 29 27 26 24 21 19 17 16 16 15 14 14 13 13 12 12 13 13 13 13 12 10 10 10 9 8 9 9 8 7 6 6 6 6 6 5 5 5
41 39 39 39 37 37 42 49 53 51 53 54 51 52 53 52 51 50 48 46 45 45 45 44 44 43 43 42 40 40 41 42 45 46 46 47 48 47 46 45 44 43 41 39 38 36 35 33 32 30 29 28 26 24 22 20 19 18 17 17 16 16 15 14 13 13 14 15 15 14 13 12 11 11 10 8 9 9 10 9 8 7 7 7 6 6 5 4
43 41 40 41 39 38 41 49 53 51 53 55 52 51 51 52 52 50 48 45 45 45 45 44 44 43 43 42 41 40 41 42 44 45 46 47 47 47 47 45 44 43 41 40 38 37 35 33 32 31 30 28 26 24 23 21 21 20 19 19 18 17 16 16 16 16 16 16 16 15 14 13 12 12 10 9 9 9 10 10 10 9 8 8 8 7 6 5
44 42 41 42 41 40 41 47 53 51 52 56 54 51 51 52 52 49 47 45 44 43 43 43 43 43 42 42 41 40 41 42 43 45 46 47 47 47 47 46 45 44 42 41 39 38 36 35 34 33 31 30 27 25 24 23 22 22 21 20 20 19 18 18 18 18 17 17 17 17 16 15 14 13 11 10 10 10 10 11 11 11 10 9 8 8 7 7
46 44 43 43 42 42 42 45 51 52 52 56 56 54 53 52 50 47 46 45 43 42 41 41 41 41 41 41 41 40 41 42 42 44 46 47 48 48 47 47 46 44 43 42 40 39 38 37 35 34 32 30 28 27 26 25 24 23 23 22 22 21 21 20 20 19 19 19 19 19 18 16 15 14 12 12 12 10 10 11 12 12 12 11 10 9 8 8
48 46 44 44 44 43 43 44 47 51 52 54 57 56 55 53 49 46 46 46 45 43 42 42 40 39 39 39 40 41 42 42 42 43 44 45 46 47 47 46 45 44 43 42 41 40 38 38 36 35 33 31 30 29 28 27 26 25 24 24 23 23 22 21 20 20 21 20 20 20 19 18 17 16 13 13 13 11 11 12 12 13 12 12 11 10 9 9
50 48 46 45 45 44 44 44 45 49 52 52 56 58 57 55 51 47 47 48 47 45 44 43 43 41 39 38 39 40 41 42 42 43 43 44 45 45 46 46 45 44 44 43 42 41 39 38 37 36 35 34 33 32 30 29 28 27 26 26 25 24 23 22 21 22 22 22 22 21 20 19 19 16 14 14 14 13 13 12 13 13 13 13 12 11 10 10
53 49 48 46 46 46 45 45 44 47 51 51 53 58 59 58 55 51 49 50 48 46 45 44 44 43 40 39 39 39 40 41 42 42 43 44 45 45 46 46 46 45 44 44 43 42 41 40 39 38 37 36 34 33 32 31 30 29 28 28 26 25 24 23 23 23 23 23 23 22 21 21 21 17 15 16 16 15 14 13 14 14 14 14 13 12 11 11
54 51 50 48 47 47 46 46 46 46 50 52 53 57 60 60 60 56 53 52 49 47 45 44 44 44 42 41 40 39 39 40 41 42 43 44 45 46 46 46 46 45 44 44 44 43 42 41 40 38 37 36 35 34 33 32 31 30 30 28 27 26 25 25 24 24 24 24 24 23 22 23 22 19 18 18 17 16 15 14 15 15 15 15 14 14 13 12
56 52 51 49 48 47 47 47 47 47 49 53 55 57 59 61 63 61 58 54 51 49 47 45 45 44 44 42 41 40 39 39 40 41 42 43 44 45 46 46 45 45 45 44 44 43 43 41 40 39 38 37 36 35 34 33 32 31 30 28 27 27 27 26 26 25 25 25 25 24 23 23 23 21 20 19 18 17 15 15 15 16 16 16 15 14 14 13
57 55 52 51 49 48 48 48 48 49 50 52 54 55 56 60 63 62 60 58 54 51 49 47 45 44 45 43 42 41 39 39 40 40 41 42 43 43 44 45 45 44 44 44 44 44 43 42 41 39 39 38 37 37 36 34 32 30 30 29 28 28 28 28 27 26 26 25 25 24 23 24 24 22 21 20 19 17 16 15 16 16 16 16 16 16 15 14
58 56 53 51 51 49 49 49 48 50 51 52 53 52 55 58 62 63 61 59 56 53 51 49 47 46 45 44 43 42 41 39 39 40 41 41 41 42 43 43 44 43 43 44 44 43 43 42 41 40 39 39 37 36 35 32 30 30 30 30 29 30 29 29 28 27 27 26 26 25 24 24 24 23 22 21 20 18 16 16 16 17 17 17 18 17 16 15
59 58 56 52 52 51 50 50 50 50 52 53 52 52 53 56 61 64 62 59 57 53 51 49 47 46 44 43 43 42 42 41 39 40 40 41 41 41 42 42 43 43 43 43 43 43 43 42 41 40 39 37 35 34 33 32 32 33 33 32 31 31 30 29 29 28 28 27 27 26 24 25 25 23 23 23 21 19 17 16 17 18 19 19 19 18 16 15
60 59 58 54 53 52 52 52 52 51 52 53 53 52 52 53 59 64 62 60 58 54 51 48 46 46 44 43 43 42 42 42 40 40 40 40 41 41 42 42 42 43 42 42 42 42 42 42 40 38 36 35 35 35 35 35 35 34 34 33 32 32 31 30 30 29 29 29 28 27 26 25 26 25 25 24 22 19 18 18 18 19 20 20 19 18 16 17
59 59 58 56 54 54 53 53 53 52 52 53 53 52 51 50 55 61 62 61 60 56 53 50 48 47 46 44 44 42 41 41 41 40 40 40 41 42 42 42 42 42 42 42 42 42 42 41 38 36 36 37 38 38 37 36 35 35 35 34 33 32 32 31 31 31 30 30 29 29 28 26 26 27 26 25 22 20 20 20 19 20 20 20 19 18 18 18
55 59 58 56 54 54 55 54 55 54 53 53 54 53 52 50 50 57 61 61 60 58 55 53 51 50 48 46 45 44 42 41 41 40 39 40 40 41 42 42 42 42 42 42 41 42 42 40 38 38 38 39 38 38 37 36 36 36 35 35 34 33 33 32 32 32 32 31 31 30 29 26 27 28 27 26 23 21 22 21 21 22 22 21 20 20 20 19
52 57 58 56 54 55 56 56 56 55 53 53 54 55 54 53 51 54 62 62 60 58 56 54 53 52 50 48 46 45 43 42 41 41 39 39 40 40 41 41 42 42 42 42 41 41 40 38 39 39 38 38 38 37 37 36 36 36 35 35 34 33 33 33 33 33 32 32 31 31 29 26 27 28 27 27 25 23 23 22 23 24 23 23 22 21 21 20
49 56 58 57 55 55 57 57 57 56 54 53 55 57 57 57 55 54 61 65 62 60 57 55 54 53 52 50 48 46 44 43 42 41 40 39 39 39 40 40 41 41 41 41 41 40 39 38 39 38 38 37 37 37 37 36 36 35 35 35 34 33 33 33 33 33 32 33 32 31 31 28 27 28 28 28 27 25 25 24 25 26 26 26 24 23 23 23
47 53 57 57 55 54 57 58 57 57 55 54 56 58 58 59 59 56 60 66 65 62 60 58 55 55 53 51 49 47 45 44 43 42 41 40 39 39 40 40 41 41 41 41 41 41 41 40 39 38 37 37 37 37 36 36 36 35 35 35 34 34 34 33 33 33 33 34 32 32 32 29 28 29 29 29 28 27 27 26 26 27 27 27 26 25 25 25
47 51 55 57 56 54 56 58 58 58 57 55 56 59 60 60 61 59 60 65 68 65 62 60 58 57 55 53 51 49 47 45 44 43 42 41 40 40 40 41 41 41 41 42 42 42 41 40 39 38 38 37 37 37 37 37 36 36 35 35 35 34 34 34 34 34 35 34 33 32 33 31 28 28 29 29 29 29 29 28 28 28 28 28 27 27 27 27
47 49 53 56 55 54 55 57 58 58 57 57 56 59 61 62 62 62 60 65 70 68 64 62 60 58 56 55 53 51 49 46 45 44 43 42 41 41 41 41 41 41 41 42 42 41 40 39 39 38 37 37 36 36 36 36 36 36 35 35 36 36 36 35 35 35 35 34 34 33 34 33 28 27 29 30 30 31 30 30 30 29 29 29 29 29 29 29
47 48 52 55 54 53 54 56 57 58 58 58 57 59 61 62 63 62 62 66 69 69 67 64 61 59 57 56 55 53 51 47 45 45 44 42 42 41 41 40 40 41 41 41 40 40 39 39 38 37 36 36 35 35 36 36 37 37 36 36 37 37 37 36 36 35 35 35 34 33 33 34 30 26 27 30 31 32 32 32 32 31 31 30 30 30 31 31
47 49 52 54 54 53 53 55 57 59 60 59 58 59 61 62 62 62 64 67 67 67 69 66 63 61 59 58 57 55 52 49 47 46 44 44 43 42 41 41 40 41 41 41 40 40 40 40 39 38 38 37 36 36 36 37 38 38 37 37 38 38 37 36 36 35 35 35 34 33 33 35 32 26 26 29 31 32 33 34 34 33 33 32 31 31 31 32
48 49 52 54 54 53 53 54 57 59 60 60 60 60 61 62 62 63 66 68 65 65 68 68 65 63 61 59 59 57 55 52 49 47 47 46 45 43 42 42 41 41 41 41 41 41 41 41 41 40 39 38 38 38 37 37 38 38 38 38 38 38 37 37 36 35 36 36 35 34 33 34 34 28 25 28 29 30 33 35 35 34 34 33 33 33 33 34
49 50 51 53 54 53 52 54 56 58 61 61 60 61 62 62 62 65 67 66 64 64 66 69 68 65 63 60 59 59 57 55 52 50 49 48 47 46 45 44 43 43 42 42 42 42 41 41 41 41 40 39 38 38 37 37 37 37 38 38 38 38 37 37 37 37 37 37 35 35 33 34 35 29 25 27 29 30 31 33 35 35 35 35 34 35 35 36
50 51 51 52 53 53 53 54 55 57 60 61 61 61 62 63 65 67 66 64 65 64 63 68 69 65 63 62 60 60 59 58 55 52 50 49 48 47 46 45 44 43 43 42 42 41 41 41 40 40 40 39 39 38 38 38 37 37 37 37 37 37 37 37 37 38 38 37 36 36 34 34 34 31 28 29 29 30 31 32 33 35 36 36 36 37 37 37
51 51 52 53 53 53 54 54 55 57 59 60 61 62 62 64 66 65 64 65 66 63 60 64 68 66 63 63 62 61 60 59 58 55 52 50 49 48 47 46 45 44 42 41 41 41 40 40 40 40 39 39 39 39 38 37 36 36 36 35 35 35 36 37 37 38 38 37 37 37 36 35 33 32 32 31 29 30 31 32 32 34 36 37 38 38 38 38
51 51 52 53 54 54 55 55 55 57 58 60 61 62 63 65 64 62 64 66 66 63 61 62 66 67 65 63 63 62 62 61 60 58 57 54 52 51 49 48 47 46 44 43 43 42 41 41 40 39 39 39 38 38 37 37 37 38 37 37 37 37 37 37 37 38 37 38 39 39 38 36 33 34 34 33 31 30 32 33 34 35 37 39 40 39 39 40
51 52 54 54 55 55 55 56 56 57 58 60 60 63 65 64 62 62 64 65 65 64 63 62 65 67 67 66 65 64 63 63 61 61 60 58 56 53 50 49 49 48 47 46 45 44 44 42 41 40 40 39 39 39 39 39 40 40 39 39 38 37 37 38 38 37 37 38 39 39 39 36 34 36 36 36 34 32 33 35 37 38 39 40 40 40 41 41
50 52 53 54 55 56 57 57 56 57 58 60 61 64 65 62 61 62 64 63 63 65 65 65 66 68 68 68 67 66 65 64 63 62 62 60 58 56 53 51 50 49 48 47 46 46 45 44 43 43 42 42 42 41 41 41 41 41 40 39 38 38 38 39 39 39 39 40 39 39 38 36 35 36 37 37 37 35 36 37 39 41 41 42 42 41 42 42
50 50 52 53 55 57 58 57 57 58 58 59 62 63 62 62 63 63 63 63 63 65 66 66 66 67 68 69 68 68 67 67 66 65 64 62 61 60 57 54 52 51 49 48 48 48 47 46 46 45 45 45 45 45 45 44 43 43 42 40 40 41 41 41 41 41 41 41 40 38 37 36 36 36 36 37 38 38 39 39 40 41 42 43 44 44 45 44
50 50 52 54 55 57 59 59 59 58 58 60 61 60 60 63 65 64 63 63 63 65 66 66 66 66 67 68 68 68 68 68 68 67 66 65 64 61 59 58 56 54 53 52 52 52 51 50 50 49 48 48 47 48 47 46 45 45 43 42 43 44 43 42 41 41 41 40 39 38 38 37 37 37 36 38 39 41 41 40 40 41 41 43 44 45 46 46
50 50 52 54 55 58 61 61 60 60 60 61 59 59 60 62 63 63 62 63 63 64 64 65 65 65 66 66 66 67 68 67 67 67 66 66 64 61 60 59 58 57 56 56 55 56 55 54 54 53 52 51 50 50 49 47 46 46 45 46 45 45 44 43 43 42 42 42 42 41 41 40 39 39 39 40 41 41 42 43 43 42 42 43 43 44 45 46
51 49 50 53 55 59 62 62 62 62 61 59 57 58 60 61 62 62 61 62 63 63 63 63 63 64 65 65 65 65 66 66 66 65 65 64 63 61 60 59 59 59 59 59 58 58 57 57 56 56 55 54 53 51 49 48 48 47 47 48 47 46 46 46 46 45 45 45 45 45 45 43 41 41 42 42 42 42 43 44 45 45 45 45 45 45 45 46
54 51 50 52 54 58 62 63 63 63 59 57 56 57 58 59 60 60 60 61 61 62 62 62 62 62 63 64 64 64 64 65 65 65 64 64 62 61 60 59 59 59 60 62 61 59 59 59 58 58 58 56 54 52 51 50 51 50 50 49 48 48 48 49 49 49 48 48 48 49 48 45 43 43 44 44 45 45 45 46 47 47 47 48 48 47 47 48
56 55 53 53 54 56 60 63 63 62 59 57 56 56 56 56 57 58 59 59 59 60 60 61 61 61 61 62 62 63 63 64 64 64 64 64 62 61 61 60 59 60 61 61 60 59 59 59 59 58 58 56 55 54 53 53 53 53 53 52 51 52 52 53 54 52 51 51 50 51 52 48 46 46 45 46 47 48 48 48 49 50 50 50 50 49 49 49
58 58 57 57 57 56 58 62 63 61 59 57 57 57 56 56 56 57 57 58 58 59 59 59 60 60 60 61 61 62 62 63 63 63 63 63 62 62 62 61 60 60 60 60 60 59 59 59 60 59 59 58 58 57 56 56 56 56 55 54 54 55 55 55 55 54 55 54 52 53 54 50 48 47 46 47 49 49 50 51 53 54 53 52 52 52 52 51
63 61 60 60 61 61 60 60 61 61 59 58 58 59 58 57 57 57 57 57 57 57 57 58 59 59 58 59 60 61 62 63 64 63 63 63 63 62 63 63 62 61 61 60 60 60 60 61 62 62 62 62 61 61 61 60 59 59 58 57 57 57 57 58 57 57 58 55 54 56 55 50 49 49 48 49 50 51 53 53 54 55 55 55 55 55 54 54
64 64 63 61 63 65 65 64 62 61 61 60 60 60 60 59 59 58 58 58 58 57 57 57 58 57 57 57 58 59 60 61 62 63 63 64 63 63 63 64 64 63 62 61 60 60 60 61 62 63 65 65 65 64 62 60 60 61 60 59 59 59 60 60 59 60 60 57 57 59 56 51 50 51 52 52 53 54 55 55 56 56 57 57 57 57 57 57
61 63 64 64 63 64 65 66 66 64 63 62 60 60 60 60 60 59 59 60 60 59 59 59 58 58 58 57 57 58 58 59 60 61 62 62 63 63 63 63 63 63 62 62 62 62 62 63 64 65 66 67 65 63 61 59 58 58 57 57 58 58 58 59 60 62 60 58 60 60 57 54 53 54 56 56 56 57 58 57 57 58 59 59 59 60 60 61
59 61 62 63 64 64 63 64 66 67 67 65 62 60 59 59 60 60 59 59 59 59 60 61 60 59 59 58 57 57 57 58 59 59 59 60 62 62 62 62 62 62 61 61 62 63 64 65 66 66 66 66 64 63 63 61 60 59 59 59 59 59 59 59 62 63 60 62 64 61 59 59 57 57 60 59 59 61 60 59 60 60 62 62 62 62 62 63
59 60 61 62 63 64 63 61 61 64 68 68 65 61 60 60 61 61 59 57 56 56 58 60 60 59 59 59 58 57 57 57 58 58 58 59 60 60 60 60 61 61 60 59 60 61 62 63 64 64 64 64 63 64 64 64 64 63 63 63 63 63 64 65 66 65 64 67 67 62 62 63 61 60 62 61 62 63 62 62 63 63 63 62 62 63 63 64
59 59 61 62 62 62 62 62 61 63 67 70 67 63 61 61 62 61 60 60 58 56 55 55 56 58 60 61 61 60 58 57 57 58 58 58 59 59 58 58 58 58 57 57 56 57 58 59 60 60 61 62 62 63 63 64 65 65 64 64 63 63 64 65 67 66 66 69 67 64 65 66 63 63 63 62 63 64 64 65 65 63 62 62 63 64 65 66
59 59 60 61 62 62 62 63 64 65 67 69 69 65 61 60 61 62 62 62 61 59 56 53 52 54 56 58 60 60 58 57 57 57 58 58 58 57 57 57 57 56 55 55 55 55 56 57 57 58 59 60 61 62 62 63 64 65 64 63 62 63 64 66 68 67 67 69 67 66 67 67 64 63 62 60 61 61 61 62 62 62 63 64 65 66 67 67
58 59 60 61 61 62 63 64 64 66 68 69 68 67 64 61 59 61 63 63 63 62 60 57 55 54 53 53 54 54 54 56 57 58 59 59 59 58 58 58 57 56 56 55 55 56 56 57 57 58 59 61 61 60 61 61 61 62 63 63 64 65 66 67 67 66 65 66 64 65 66 65 63 61 58 58 59 59 58 59 59 62 63 65 67 68 68 67
57 58 59 61 62 62 64 64 65 66 68 68 67 67 67 63 60 62 65 66 66 66 63 62 62 61 59 56 53 50 50 52 53 54 56 58 59 59 60 60 59 59 59 59 59 59 59 59 59 60 61 61 61 61 60 60 61 64 65 65 65 65 64 64 63 62 61 61 62 63 63 61 60 59 59 59 59 59 59 60 62 64 66 67 68 68 67 67
Wind_Direction
211 210 207 208 211 213 212 208 205 203 201 199 194 187 182 178 175 175 175 175 176 178 179 180 181 182 183 183 184 185 185 185 184 184 184 183 181 179 178 179 179 178 177 176 175 174 173 174 175 176 174 172 170 169 168 164 161 160 160 159 160 164 163 162 163 169 182 183 175 163 154 149 143 147 135 115 89 81 85 90 93 93 99 106 107 107 106 102
211 210 207 208 210 211 210 206 204 202 200 197 190 184 181 179 176 177 178 179 179 180 181 182 183 185 186 187 188 188 187 187 186 185 186 185 182 181 180 180 181 180 178 177 176 175 174 176 177 178 178 176 174 173 172 169 165 163 162 164 165 170 176 173 169 173 182 185 183 174 163 160 162 169 161 146 121 96 92 96 101 102 104 111 113 113 114 111
210 209 207 207 209 209 208 204 203 202 199 195 189 184 182 180 178 179 181 182 182 182 183 184 185 187 188 189 190 190 190 188 187 187 188 187 185 183 182 182 183 182 180 178 177 176 176 178 179 180 180 180 179 177 175 173 171 170 168 169 171 179 184 177 176 184 187 187 184 183 179 174 176 182 180 170 155 125 108 104 106 111 114 118 121 122 123 121
209 208 207 207 208 207 205 202 202 202 198 193 188 184 183 181 180 181 183 184 184 185 185 186 187 188 190 191 192 192 191 189 188 188 189 189 187 186 184 184 184 183 182 180 179 178 178 180 181 182 183 183 183 183 180 178 178 180 177 176 180 188 191 182 185 193 192 190 187 192 194 189 191 192 192 188 176 160 137 120 114 117 122 127 129 128 129 129
208 207 206 206 207 206 203 200 204 204 197 192 188 186 185 183 182 182 184 186 186 187 187 188 189 189 190 192 193 194 193 191 189 189 190 190 189 188 186 186 185 185 184 182 181 181 181 183 184 184 185 186 188 189 188 186 185 188 188 187 190 199 201 193 193 197 197 196 191 199 203 196 200 202 199 198 193 186 172 150 134 128 131 133 133 129 129 130
207 207 206 206 206 205 201 199 205 205 196 192 190 187 186 185 184 185 186 187 188 188 188 189 190 190 191 193 194 195 195 193 191 191 192 191 191 190 189 187 187 187 186 185 184 184 185 186 187 187 189 189 191 192 192 192 193 196 199 198 199 206 211 206 203 202 203 203 196 200 207 201 205 211 204 202 202 200 195 183 164 152 147 143 140 134 130 130
206 205 204 205 206 204 201 199 205 205 196 193 192 189 188 187 187 187 187 189 189 190 190 190 191 191 192 193 195 196 197 195 193 193 194 192 192 192 191 190 189 189 188 188 187 187 188 189 190 191 193 194 194 195 195 196 199 202 206 207 205 210 218 218 212 209 209 210 205 203 208 207 209 217 211 205 208 208 206 202 191 178 172 166 160 155 148 146
206 205 204 204 205 203 202 200 202 203 196 193 193 191 190 190 190 190 190 191 191 191 191 192 192 193 193 193 194 196 197 197 195 196 196 194 194 193 193 192 192 191 191 191 190 191 191 193 194 196 198 199 199 199 199 202 205 208 212 213 211 214 222 226 221 218 215 214 213 210 211 211 212 221 220 210 212 215 213 212 208 199 193 189 184 181 178 179
205 205 203 204 204 202 202 202 201 202 198 194 194 194 193 192 192 192 193 193 193 192 192 192 193 194 194 194 193 195 197 197 197 198 198 197 196 195 194 194 194 194 194 194 194 194 195 197 198 200 202 203 204 205 206 208 210 213 218 219 218 219 222 228 227 224 221 217 216 215 215 214 215 222 226 221 219 220 219 216 216 213 208 206 201 197 197 202
205 204 204 203 204 202 202 204 203 202 199 195 194 195 195 194 194 194 196 195 194 192 191 191 193 193 195 195 195 195 196 197 198 199 199 199 198 198 196 196 196 196 197 197 197 196 197 200 202 204 206 207 208 210 212 214 216 217 222 224 224 223 224 228 228 227 226 223 220 218 218 217 219 221 225 230 228 225 224 219 218 219 217 216 214 209 207 212
205 204 204 203 204 203 202 204 205 203 200 197 196 196 196 195 195 196 197 195 194 192 191 191 191 192 193 195 196 197 197 197 199 200 200 200 200 200 199 198 198 199 200 200 200 200 200 202 205 207 209 211 212 215 217 219 220 222 225 228 228 228 228 229 229 228 228 226 223 221 220 219 222 221 221 231 234 229 229 225 220 220 221 220 220 220 217 218
205 204 204 204 204 203 203 204 206 204 200 199 198 197 198 196 195 197 197 195 194 193 192 191 191 191 193 195 197 198 198 198 199 201 201 201 201 202 202 201 201 201 202 203 204 204 204 206 207 209 212 214 216 218 220 221 223 225 228 230 231 232 232 232 231 230 230 228 225 223 222 221 223 222 220 229 235 232 231 230 226 222 222 223 223 225 225 226
204 204 204 204 204 204 203 203 206 205 200 200 201 198 198 197 194 195 197 196 194 193 193 192 190 189 190 194 197 198 198 199 200 202 202 203 203 203 204 204 204 204 204 206 207 208 209 209 210 212 214 216 218 220 222 224 225 227 229 232 233 234 235 234 232 232 231 229 227 225 222 223 225 221 220 229 233 234 233 232 230 224 221 223 223 225 228 229
203 203 204 204 204 203 204 203 205 206 202 201 203 201 199 198 195 194 196 196 193 192 192 192 190 189 188 192 195 196 199 200 201 203 203 204 204 205 205 206 206 207 207 208 210 211 212 213 214 215 217 219 221 223 225 226 227 228 230 232 234 236 237 235 233 232 232 230 229 226 222 225 226 222 223 229 231 233 234 231 230 226 221 221 221 224 227 229
203 204 204 204 205 204 203 204 204 206 204 202 204 204 201 199 197 194 194 194 193 191 191 192 191 190 189 192 193 194 197 199 201 203 204 205 205 206 207 207 208 209 210 211 212 214 215 216 217 218 220 222 223 225 227 229 230 231 233 234 235 237 238 235 233 233 232 231 231 228 224 225 227 224 226 229 231 234 235 233 231 228 224 220 220 222 224 227
204 204 205 204 206 205 204 205 204 205 205 204 207 207 203 201 199 196 193 192 192 191 191 193 194 192 192 194 193 192 195 198 200 202 203 204 206 207 208 208 210 211 212 213 214 216 217 218 219 220 222 224 225 227 229 230 232 234 235 236 236 237 237 236 234 233 234 232 232 230 226 227 227 226 229 230 231 234 236 236 234 232 227 222 222 221 221 224
206 205 206 205 206 206 205 205 205 205 206 207 210 210 206 204 201 197 194 191 191 191 192 194 196 195 195 196 194 194 196 197 199 202 203 204 205 206 207 209 210 211 213 214 215 216 218 219 220 222 223 225 226 228 230 232 234 236 237 237 237 237 237 236 234 234 234 233 232 231 228 230 229 227 230 233 233 234 236 237 235 233 228 223 223 222 220 222
207 206 206 207 206 207 206 206 206 206 206 208 210 210 209 206 202 198 196 193 190 191 194 194 195 197 197 197 196 197 199 199 200 201 203 205 205 206 206 207 208 210 212 214 215 217 218 220 220 222 223 225 227 230 233 234 234 234 235 235 235 236 236 236 236 234 235 233 232 232 229 231 232 229 230 233 234 235 236 236 234 230 225 223 224 225 222 222
207 207 207 208 208 208 207 207 207 207 207 209 210 210 209 207 203 200 199 196 191 191 194 193 194 197 197 199 200 200 201 202 203 203 203 205 206 207 207 208 208 208 211 213 215 216 218 219 220 222 224 227 229 230 231 231 231 231 232 233 233 234 235 236 236 234 234 233 232 232 230 232 235 233 231 232 232 233 235 235 231 228 225 223 226 228 226 226
207 207 207 208 209 209 209 208 208 208 208 209 210 211 210 207 203 201 200 198 193 191 194 195 196 199 199 201 203 203 203 204 205 205 205 205 206 208 209 209 209 209 210 212 214 215 217 219 220 222 224 226 226 227 228 228 229 231 232 233 234 234 234 235 235 235 234 233 232 231 229 230 234 235 233 232 231 230 233 232 229 228 226 225 227 230 230 232
207 208 208 208 209 210 210 209 208 208 208 208 210 211 211 208 205 203 202 199 195 191 193 197 200 202 202 203 205 204 205 205 206 207 207 207 207 208 209 210 211 211 211 213 214 215 217 218 219 219 220 221 223 225 227 228 230 231 233 234 234 234 233 233 234 234 234 233 232 231 229 227 233 236 236 235 231 229 231 231 230 230 228 228 228 230 232 236
208 207 208 209 209 210 210 210 209 209 208 208 209 210 211 210 206 205 203 200 196 194 195 198 201 204 204 205 206 206 206 206 207 208 208 209 209 209 210 210 211 212 212 214 215 216 217 217 217 218 220 222 225 227 229 230 231 232 233 233 232 232 232 232 233 233 233 233 232 233 231 227 232 238 239 239 233 229 232 231 230 231 230 229 228 229 234 239
210 207 208 209 209 210 210 211 210 209 209 208 208 209 210 210 208 206 203 200 198 197 198 200 202 204 205 206 207 208 208 208 208 209 209 210 210 211 210 210 211 212 212 213 214 216 217 218 219 220 222 224 226 229 231 232 233 233 233 232 231 230 230 231 232 233 234 234 234 235 234 229 232 237 240 242 236 231 232 231 230 231 230 230 230 231 235 239
211 208 208 209 209 209 210 211 210 209 209 207 207 208 208 210 210 208 205 202 200 199 200 202 204 206 207 207 208 209 209 209 209 209 209 211 212 212 211 211 212 211 212 213 214 214 215 217 220 221 223 225 227 229 230 231 231 231 231 231 230 229 230 231 232 234 235 236 236 237 236 231 231 236 238 241 240 234 234 232 231 231 231 232 232 232 235 238
212 210 208 208 208 208 209 210 211 210 209 207 207 208 208 209 210 210 208 204 203 202 201 201 204 207 208 209 209 210 210 210 210 210 209 210 211 212 212 213 212 212 213 213 214 215 216 218 220 221 223 225 227 229 230 230 230 230 229 229 229 229 230 231 231 233 234 236 236 237 239 233 230 235 238 240 241 239 236 235 233 232 232 234 234 234 237 241
212 210 209 208 208 207 208 210 211 210 209 208 207 207 208 209 210 210 210 208 205 204 203 201 203 206 208 210 211 211 211 211 211 211 211 211 211 211 212 213 213 214 214 215 215 216 217 219 220 222 223 225 226 227 228 229 229 229 229 229 229 229 230 231 231 232 234 235 236 238 241 238 230 233 238 240 242 242 239 237 236 235 234 235 236 237 240 243
211 210 208 207 208 207 207 209 210 210 210 209 208 208 209 210 211 211 212 213 209 205 204 203 203 204 206 210 212 212 212 212 211 212 212 212 212 212 213 212 214 215 216 216 216 217 218 219 221 222 224 225 226 227 228 229 229 229 229 229 229 229 230 231 231 233 234 235 236 238 242 242 234 230 237 240 241 243 242 240 239 238 238 236 236 238 241 244
210 209 208 207 208 208 208 209 210 210 210 209 208 208 209 210 212 212 213 216 213 207 206 205 204 205 207 210 212 213 213 212 213 214 213 214 214 213 214 213 214 216 216 218 218 219 220 221 222 223 225 226 227 228 228 228 229 228 228 228 229 230 231 232 232 234 236 237 237 238 242 246 239 229 234 240 241 243 243 242 241 241 241 240 238 239 242 246
209 208 207 207 208 208 208 209 210 210 209 209 208 208 209 210 212 212 214 217 215 210 208 207 206 206 208 210 212 213 213 213 215 215 215 216 216 215 215 215 215 216 216 217 217 218 220 221 222 222 223 224 225 227 227 227 228 228 228 228 230 231 232 233 234 235 237 238 238 239 242 247 244 232 231 238 241 243 244 244 243 242 243 243 243 243 243 246
210 208 207 207 208 208 208 209 210 211 210 209 209 209 210 211 212 213 215 216 216 213 211 209 209 208 208 210 212 212 213 215 216 216 216 217 217 217 217 217 217 218 217 217 218 218 219 221 222 222 223 224 225 227 227 227 228 228 229 229 231 233 234 235 235 236 238 238 239 241 243 247 247 238 231 236 239 241 243 244 244 243 244 245 246 247 247 248
212 210 209 208 208 209 209 210 211 211 210 210 210 210 210 212 213 214 215 216 217 216 213 211 210 210 210 211 213 213 214 215 216 217 218 218 218 218 218 218 217 218 218 218 219 220 220 222 223 223 224 225 226 228 229 230 229 230 231 231 233 234 235 236 237 238 239 239 240 242 244 246 247 242 236 235 236 238 240 243 245 244 245 246 247 248 248 249
212 211 210 209 209 209 209 210 211 212 212 211 211 211 211 213 214 214 215 216 219 218 215 213 211 211 212 213 214 216 217 217 217 218 220 220 221 221 221 221 221 221 221 220 221 222 222 223 224 225 226 227 228 229 230 231 231 232 232 233 234 236 237 238 239 240 240 241 242 244 244 244 245 246 242 238 237 238 239 241 244 245 245 246 248 249 249 250
211 211 211 210 210 210 210 211 211 212 213 212 212 212 212 214 214 214 215 217 219 219 216 214 212 213 215 215 216 217 218 220 220 220 222 223 223 223 223 224 224 224 225 225 226 226 226 226 227 228 229 229 230 232 233 234 235 236 236 236 237 238 239 239 240 241 242 242 244 245 245 242 242 245 246 244 241 240 240 242 242 244 245 246 248 249 250 252
210 210 211 211 211 211 211 211 211 212 213 213 213 213 214 215 214 214 216 217 219 219 217 215 214 214 217 217 218 219 220 221 221 222 224 224 225 225 225 225 225 225 225 226 227 228 229 229 229 231 233 233 235 235 236 237 238 238 237 237 236 237 239 239 240 241 242 243 244 245 245 243 242 245 248 248 247 244 244 246 245 245 245 246 248 249 251 252
211 210 212 212 212 212 212 212 212 212 213 213 214 214 215 216 215 215 217 218 219 220 219 217 217 217 218 219 219 220 222 223 223 224 224 225 226 226 227 227 227 228 228 229 230 229 230 230 230 232 234 235 237 238 238 238 238 238 238 238 238 239 241 242 243 243 244 244 244 245 246 245 245 248 250 252 251 248 247 248 249 250 249 248 248 248 250 251
214 212 213 214 214 214 213 213 213 214 214 214 215 216 216 217 218 217 218 218 219 221 221 220 219 219 220 221 221 222 222 224 225 226 227 227 227 227 228 229 230 231 232 233 235 235 235 235 234 234 235 236 237 238 238 239 239 240 240 240 241 242 243 245 245 245 245 245 244 245 246 246 247 249 251 254 255 253 251 250 251 252 253 254 253 253 252 252
218 216 215 216 216 216 215 214 214 215 216 216 216 217 216 217 219 219 219 219 219 221 222 222 222 222 221 222 223 224 224 225 226 227 228 229 229 228 228 229 230 231 233 235 237 238 238 239 239 238 238 239 239 239 239 239 240 241 241 241 242 243 243 243 245 245 246 247 246 246 248 248 249 250 252 255 257 257 255 253 253 253 255 257 258 258 258 258
220 220 219 218 218 218 217 215 215 215 217 218 217 216 216 218 220 219 219 220 221 222 223 223 223 224 224 224 225 226 227 227 228 229 229 231 231 230 229 230 231 232 233 234 236 237 238 240 240 239 240 240 240 241 241 241 242 243 243 243 244 246 246 246 248 249 251 253 252 250 250 249 249 250 252 254 256 258 259 258 257 256 256 257 257 258 260 261
219 221 220 219 219 219 218 216 216 216 218 219 218 216 216 218 220 221 220 221 222 223 224 224 223 224 225 226 227 228 229 230 231 231 232 233 233 232 231 232 232 234 236 237 238 238 239 240 240 240 240 241 241 241 242 243 245 245 246 246 247 248 250 250 251 252 253 255 254 252 250 249 249 251 252 253 255 258 261 263 263 261 260 259 259 258 259 260
216 219 220 218 218 219 219 217 217 217 219 220 220 219 218 219 220 221 221 222 223 224 225 225 224 225 226 227 227 228 229 230 231 232 233 234 235 234 234 234 235 236 237 239 239 240 240 241 242 242 242 242 242 243 244 246 247 247 247 247 248 250 251 252 253 252 253 255 255 255 252 251 252 254 254 256 257 258 260 263 265 265 265 263 262 261 260 260
215 216 218 218 219 220 219 219 218 218 220 221 221 221 221 221 222 222 222 222 223 224 226 227 226 225 226 228 228 229 230 230 231 232 233 233 234 235 236 236 237 238 239 240 240 241 242 243 243 244 245 245 246 247 246 246 246 246 247 247 248 249 250 251 252 252 252 253 255 256 255 253 254 255 256 257 258 258 259 261 264 265 265 265 265 265 264 263
216 216 217 217 220 222 222 222 221 221 221 221 221 222 222 222 222 224 224 223 224 225 226 227 227 227 227 228 229 230 231 231 232 232 232 233 233 235 236 236 237 238 239 240 241 242 243 244 244 245 246 247 247 246 245 245 246 246 246 247 248 249 249 250 252 252 253 253 254 256 256 255 256 258 258 259 260 260 260 261 262 263 264 265 267 268 268 268
217 219 219 218 219 220 223 225 225 224 224 224 224 224 224 224 223 224 224 224 225 225 226 227 228 228 227 228 229 230 231 232 233 233 233 233 233 234 235 235 235 237 238 239 239 240 241 242 243 244 244 245 245 245 244 245 245 246 247 247 248 249 250 252 252 253 253 253 254 256 257 257 259 261 261 262 262 262 262 262 262 263 263 264 266 268 269 270
215 218 219 219 219 219 220 223 226 226 226 226 227 226 227 227 226 226 226 226 225 225 226 227 228 229 228 228 229 230 231 232 233 233 233 234 233 233 234 235 235 236 237 239 240 241 241 242 242 243 243 243 243 244 244 245 246 248 249 249 250 251 252 252 253 253 253 254 255 256 258 259 261 263 263 262 263 263 263 263 264 265 266 266 267 267 267 268
211 215 217 218 219 220 221 223 225 227 227 227 227 228 228 229 229 229 228 228 228 227 228 228 229 230 230 230 230 230 231 232 233 233 233 234 234 234 234 235 236 236 237 238 239 239 240 241 242 243 244 244 245 248 250 251 253 253 253 254 254 254 254 254 254 254 254 256 256 257 259 260 261 263 263 263 263 263 264 264 265 266 268 268 268 268 268 268
207 210 214 217 218 220 221 222 223 225 226 228 228 228 228 229 229 229 229 229 229 229 230 230 230 231 232 232 231 231 232 233 233 233 234 234 235 235 236 236 237 237 237 238 239 239 239 240 241 242 244 246 248 250 252 253 254 254 254 255 255 255 255 255 254 254 256 258 257 257 259 260 258 260 261 261 262 263 264 265 265 266 267 267 268 268 269 268
208 208 210 213 216 218 220 221 221 222 225 227 229 228 227 227 227 228 228 227 228 229 230 230 230 231 232 232 232 233 233 233 233 233 233 234 235 236 236 237 237 237 237 238 239 239 240 242 243 245 246 248 249 249 249 249 249 249 250 250 250 251 251 251 252 254 256 256 256 256 258 258 258 258 259 260 262 263 263 264 265 265 265 266 267 268 268 268
214 211 210 210 213 216 218 220 220 220 222 225 227 227 226 226 226 227 226 226 228 229 230 230 230 230 230 231 232 232 232 232 233 232 232 232 233 234 235 236 237 237 237 238 238 240 241 243 244 246 246 247 248 248 249 249 249 249 249 249 248 249 249 250 252 254 254 255 257 258 257 257 258 258 259 260 261 262 263 264 264 264 264 265 266 266 266 266
218 217 215 213 212 213 215 217 218 218 218 220 223 225 226 226 227 226 226 228 229 229 229 229 229 230 230 230 231 231 230 231 232 232 232 232 232 233 234 235 236 237 237 237 238 239 241 242 243 244 245 245 245 246 246 248 248 248 248 249 249 249 250 252 254 255 255 256 258 258 257 258 258 259 259 260 261 262 263 263 264 264 265 265 264 264 264 264
220 220 219 218 216 214 213 214 216 217 217 218 219 221 224 226 227 228 228 229 230 230 231 230 229 230 230 230 231 231 231 231 231 232 233 233 233 233 234 235 236 237 238 238 239 239 240 241 241 242 243 243 243 244 245 246 247 247 247 247 247 249 250 252 254 255 255 256 258 258 258 258 259 259 260 261 261 262 262 262 263 264 264 264 264 264 264 265
223 222 222 221 220 218 216 215 216 217 218 219 219 220 222 225 227 229 231 231 231 231 231 231 230 229 229 229 230 230 232 232 232 232 233 234 234 234 235 236 235 236 238 239 240 241 241 241 241 242 243 243 243 244 245 246 247 248 247 247 248 250 252 254 255 256 256 258 259 259 258 259 260 260 260 260 260 260 260 260 260 261 261 261 262 264 265 266
226 225 225 224 223 221 219 219 219 218 218 219 221 221 222 223 224 225 228 230 232 232 232 231 231 231 231 231 231 231 233 234 233 233 234 234 235 235 236 236 235 235 236 237 239 240 241 241 241 242 244 244 244 245 247 248 248 248 247 249 251 253 254 255 256 256 257 259 260 260 260 260 260 258 257 258 258 258 258 258 258 258 259 260 262 264 266 267
Height
5710 5713 5717 5719 5721 5723 5727 5730 5733 5736 5739 5742 5745 5748 5752 5754 5757 5760 5763 5767 5770 5773 5777 5780 5784 5787 5790 5793 5797 5800 5803 5807 5810 5813 5815 5816 5818 5821 5823 5825 5829 5831 5833 5836 5839 5842 5845 5847 5849 5851 5853 5855 5856 5858 5860 5861 5863 5864 5865 5867 5868 5869 5870 5871 5872 5873 5874 5875 5875 5874 5874 5874 5875 5875 5876 5876 5876 5876 5875 5876 5876 5876 5877 5877 5877 5878 5878 5878
5708 5711 5714 5717 5719 5721 5724 5728 5731 5735 5738 5741 5744 5747 5750 5753 5756 5759 5763 5766 5769 5773 5776 5779 5783 5786 5790 5793 5797 5800 5803 5805 5808 5811 5813 5816 5818 5820 5822 5825 5828 5831 5833 5835 5838 5841 5844 5846 5848 5850 5852 5854 5856 5858 5859 5861 5862 5864 5865 5867 5868 5868 5869 5870 5871 5873 5874 5874 5875 5874 5874 5874 5875 5875 5876 5876 5876 5876 5876 5876 5876 5876 5877 5877 5877 5878 5878 5878
5705 5709 5712 5715 5717 5719 5722 5726 5730 5733 5736 5739 5742 5746 5749 5752 5754 5758 5761 5765 5768 5771 5775 5778 5781 5785 5789 5792 5796 5799 5802 5804 5807 5809 5812 5815 5818 5819 5821 5824 5827 5830 5832 5834 5837 5840 5842 5844 5847 5849 5852 5854 5856 5857 5859 5861 5862 5863 5865 5866 5867 5868 5869 5870 5871 5872 5873 5874 5874 5874 5874 5875 5875 5875 5876 5876 5876 5876 5876 5876 5876 5877 5877 5877 5877 5878 5878 5878
5703 5706 5709 5712 5715 5717 5720 5724 5728 5730 5734 5737 5740 5744 5747 5750 5753 5756 5760 5763 5767 5770 5773 5776 5779 5783 5787 5790 5794 5797 5800 5803 5805 5808 5811 5815 5817 5818 5820 5823 5826 5829 5832 5834 5836 5838 5841 5843 5846 5848 5851 5853 5855 5857 5858 5860 5861 5863 5864 5866 5867 5868 5868 5869 5870 5871 5872 5873 5874 5874 5874 5875 5875 5875 5875 5876 5876 5876 5876 5876 5877 5877 5877 5877 5877 5878 5878 5878
5701 5704 5707 5710 5712 5715 5718 5722 5725 5728 5731 5735 5738 5742 5745 5748 5751 5754 5758 5761 5765 5768 5771 5775 5778 5781 5785 5788 5792 5795 5798 5801 5804 5806 5810 5813 5816 5818 5820 5822 5825 5828 5831 5833 5835 5837 5840 5842 5845 5847 5850 5852 5854 5856 5858 5859 5860 5862 5863 5865 5866 5867 5868 5869 5870 5871 5871 5872 5873 5874 5874 5875 5875 5875 5875 5876 5876 5876 5876 5877 5877 5877 5877 5878 5877 5878 5878 5878
5698 5701 5705 5708 5710 5713 5716 5720 5723 5725 5729 5733 5736 5740 5743 5747 5749 5752 5756 5759 5763 5766 5770 5773 5776 5780 5783 5786 5790 5793 5797 5800 5802 5805 5808 5812 5815 5817 5819 5821 5824 5827 5830 5832 5834 5837 5839 5841 5844 5846 5848 5850 5852 5854 5856 5858 5859 5861 5862 5864 5865 5866 5867 5868 5869 5870 5871 5871 5872 5873 5874 5874 5874 5875 5875 5875 5876 5876 5876 5877 5877 5877 5878 5878 5878 5878 5878 5878
5696 5699 5702 5705 5708 5711 5714 5717 5720 5723 5726 5730 5734 5738 5741 5745 5748 5751 5754 5758 5761 5765 5768 5771 5775 5778 5781 5784 5788 5791 5795 5798 5801 5804 5807 5811 5814 5816 5819 5821 5823 5826 5829 5831 5833 5836 5838 5841 5843 5845 5847 5849 5851 5853 5855 5857 5858 5859 5861 5862 5864 5865 5866 5867 5868 5869 5870 5870 5872 5873 5873 5874 5874 5874 5875 5875 5875 5876 5876 5876 5877 5877 5878 5878 5878 5878 5878 5878
5693 5697 5700 5703 5706 5708 5712 5715 5718 5720 5724 5728 5732 5735 5739 5742 5746 5749 5753 5756 5760 5763 5766 5770 5773 5777 5780 5783 5787 5790 5793 5796 5799 5802 5806 5809 5812 5815 5818 5820 5822 5825 5828 5830 5832 5834 5837 5839 5842 5844 5846 5848 5850 5852 5854 5855 5856 5858 5859 5861 5863 5864 5865 5866 5867 5868 5869 5870 5871 5872 5872 5873 5873 5873 5874 5875 5875 5875 5876 5876 5876 5877 5877 5877 5878 5878 5878 5878
5690 5694 5697 5700 5703 5706 5709 5712 5716 5718 5721 5726 5730 5733 5737 5740 5744 5747 5751 5754 5758 5761 5765 5768 5772 5775 5779 5782 5785 5788 5791 5795 5798 5801 5804 5807 5810 5813 5816 5819 5821 5824 5826 5829 5831 5833 5835 5838 5840 5842 5844 5846 5848 5850 5852 5853 5855 5857 5858 5859 5861 5863 5864 5865 5865 5866 5867 5869 5870 5870 5871 5872 5873 5873 5873 5874 5874 5875 5876 5876 5876 5876 5876 5877 5877 5877 5877 5878
5688 5692 5695 5698 5701 5704 5706 5710 5713 5716 5719 5723 5727 5731 5734 5738 5741 5745 5749 5752 5756 5759 5763 5766 5770 5774 5777 5781 5784 5787 5790 5793 5796 5799 5802 5806 5809 5811 5814 5817 5820 5822 5825 5827 5829 5831 5833 5836 5838 5840 5842 5844 5846 5848 5850 5851 5853 5855 5856 5858 5860 5861 5863 5863 5864 5865 5866 5868 5869 5869 5870 5871 5872 5872 5873 5873 5873 5874 5875 5875 5876 5876 5876 5876 5876 5877 5877 5877
5685 5689 5692 5696 5699 5701 5704 5707 5710 5714 5717 5721 5725 5728 5732 5736 5739 5743 5746 5750 5753 5757 5761 5764 5768 5772 5776 5779 5782 5785 5788 5791 5794 5797 5800 5804 5807 5810 5812 5815 5818 5820 5823 5825 5827 5829 5831 5833 5836 5839 5841 5843 5845 5846 5848 5849 5851 5853 5854 5856 5858 5859 5861 5862 5863 5864 5865 5866 5867 5868 5869 5870 5871 5871 5872 5872 5872 5873 5874 5874 5875 5875 5875 5875 5876 5876 5876 5876
5682 5686 5690 5693 5696 5699 5702 5705 5708 5711 5714 5718 5722 5726 5730 5734 5737 5741 5744 5747 5751 5755 5759 5762 5766 5770 5774 5777 5780 5783 5786 5789 5793 5796 5799 5802 5805 5808 5811 5813 5816 5818 5821 5823 5826 5828 5830 5832 5835 5837 5839 5841 5843 5844 5845 5847 5849 5851 5852 5854 5856 5857 5858 5860 5861 5862 5863 5865 5866 5867 5868 5869 5869 5870 5871 5871 5871 5872 5872 5873 5874 5874 5874 5874 5875 5875 5875 5876
5679 5683 5687 5690 5694 5696 5699 5703 5706 5709 5712 5715 5719 5724 5728 5731 5735 5739 5742 5746 5749 5753 5757 5760 5764 5768 5772 5775 5777 5781 5784 5787 5791 5794 5797 5800 5803 5805 5808 5811 5814 5816 5819 5821 5824 5826 5828 5831 5833 5835 5837 5839 5840 5842 5843 5845 5847 5849 5850 5852 5854 5855 5856 5858 5860 5860 5862 5863 5864 5865 5866 5867 5868 5869 5870 5870 5870 5871 5871 5872 5872 5873 5873 5873 5874 5874 5875 5875
5675 5680 5684 5688 5691 5694 5697 5700 5703 5707 5710 5713 5716 5721 5725 5729 5732 5736 5740 5744 5747 5751 5754 5758 5762 5766 5769 5772 5775 5779 5783 5786 5789 5792 5795 5798 5800 5803 5806 5809 5811 5814 5816 5819 5821 5824 5827 5829 5831 5833 5835 5836 5838 5840 5841 5843 5845 5847 5848 5850 5851 5853 5855 5856 5857 5858 5859 5861 5862 5863 5865 5865 5866 5868 5868 5868 5869 5869 5870 5871 5871 5872 5872 5873 5873 5873 5874 5874
5672 5676 5681 5685 5688 5691 5694 5697 5701 5704 5707 5710 5713 5717 5722 5726 5729 5733 5737 5741 5745 5749 5752 5756 5760 5763 5767 5770 5773 5778 5781 5784 5788 5790 5793 5796 5798 5801 5804 5806 5809 5811 5814 5816 5819 5821 5824 5827 5829 5831 5832 5834 5836 5838 5839 5841 5843 5844 5846 5848 5850 5851 5853 5854 5855 5856 5857 5859 5860 5861 5863 5863 5864 5866 5866 5867 5867 5868 5869 5870 5870 5870 5871 5871 5872 5873 5873 5873
5669 5673 5677 5681 5685 5689 5692 5695 5698 5701 5705 5708 5710 5713 5718 5723 5726 5729 5733 5738 5742 5746 5750 5754 5757 5761 5765 5767 5771 5776 5780 5783 5786 5789 5792 5794 5796 5799 5801 5804 5806 5809 5811 5814 5816 5819 5822 5824 5826 5828 5830 5832 5834 5835 5837 5839 5841 5843 5844 5846 5848 5849 5850 5851 5852 5854 5855 5856 5858 5859 5861 5862 5863 5864 5864 5865 5866 5867 5868 5868 5869 5869 5869 5870 5871 5872 5872 5872
5666 5670 5674 5678 5682 5686 5689 5692 5695 5698 5702 5704 5707 5711 5715 5720 5723 5727 5731 5734 5739 5743 5747 5751 5755 5759 5762 5765 5770 5774 5778 5781 5784 5787 5790 5792 5794 5797 5799 5802 5804 5807 5809 5811 5814 5817 5819 5822 5824 5826 5828 5830 5831 5833 5834 5837 5840 5842 5843 5844 5845 5846 5847 5848 5850 5851 5852 5854 5855 5857 5859 5860 5861 5862 5862 5863 5865 5866 5866 5867 5868 5868 5868 5869 5869 5870 5871 5871
5663 5667 5671 5675 5679 5682 5686 5689 5692 5695 5698 5702 5704 5708 5712 5716 5721 5724 5728 5732 5736 5741 5744 5748 5752 5756 5760 5764 5768 5772 5775 5778 5781 5784 5787 5790 5792 5795 5797 5799 5802 5804 5807 5809 5812 5814 5817 5819 5822 5824 5825 5827 5829 5831 5834 5837 5839 5840 5840 5842 5843 5843 5845 5846 5848 5849 5850 5852 5853 5854 5856 5857 5858 5860 5861 5862 5863 5864 5865 5865 5866 5867 5867 5867 5867 5868 5869 5869
5659 5663 5667 5671 5675 5679 5682 5686 5689 5692 5696 5699 5702 5706 5709 5713 5718 5722 5726 5730 5733 5738 5742 5747 5751 5756 5760 5763 5766 5769 5772 5775 5778 5781 5784 5787 5790 5792 5795 5797 5799 5802 5804 5807 5809 5812 5814 5817 5819 5822 5824 5827 5829 5831 5832 5834 5835 5836 5837 5838 5840 5841 5842 5844 5845 5846 5847 5849 5850 5852 5854 5855 5856 5858 5859 5859 5861 5862 5863 5864 5864 5865 5865 5865 5866 5866 5867 5868
5655 5660 5663 5668 5672 5675 5679 5682 5686 5689 5693 5696 5700 5703 5706 5710 5715 5719 5724 5728 5732 5736 5741 5747 5751 5754 5758 5761 5763 5766 5769 5772 5776 5778 5781 5784 5787 5790 5792 5794 5797 5799 5802 5804 5807 5809 5812 5814 5818 5821 5824 5825 5826 5827 5828 5830 5831 5833 5834 5836 5838 5839 5840 5842 5842 5844 5845 5846 5848 5849 5851 5853 5853 5854 5856 5857 5859 5860 5861 5861 5862 5862 5863 5864 5864 5865 5866 5866
5651 5656 5660 5664 5668 5672 5675 5679 5683 5686 5690 5694 5698 5702 5706 5710 5714 5719 5724 5727 5729 5733 5738 5743 5748 5751 5754 5758 5761 5764 5767 5770 5773 5776 5779 5781 5784 5787 5789 5792 5795 5797 5800 5802 5804 5807 5809 5812 5816 5818 5819 5820 5821 5822 5825 5827 5829 5831 5832 5834 5836 5837 5838 5839 5840 5841 5842 5844 5845 5846 5848 5851 5851 5851 5853 5854 5857 5858 5859 5859 5860 5861 5861 5862 5863 5864 5864 5864
5648 5652 5656 5660 5664 5668 5672 5676 5680 5683 5688 5692 5696 5700 5705 5709 5713 5718 5722 5724 5727 5730 5734 5739 5743 5747 5751 5755 5758 5761 5764 5767 5770 5773 5776 5779 5782 5784 5787 5790 5792 5795 5797 5800 5803 5805 5807 5811 5813 5813 5815 5817 5819 5821 5823 5825 5827 5828 5830 5831 5833 5834 5835 5836 5837 5838 5840 5841 5842 5844 5846 5849 5849 5849 5850 5852 5854 5856 5856 5857 5858 5858 5859 5860 5861 5861 5862 5862
5645 5649 5653 5657 5661 5665 5669 5672 5677 5681 5685 5690 5694 5697 5701 5705 5709 5713 5716 5719 5723 5726 5730 5735 5739 5743 5747 5751 5755 5758 5762 5765 5768 5771 5774 5777 5779 5782 5784 5787 5789 5792 5795 5797 5800 5803 5806 5808 5809 5810 5813 5815 5817 5819 5820 5822 5824 5826 5827 5829 5830 5832 5833 5834 5835 5836 5837 5838 5840 5841 5843 5847 5847 5847 5848 5849 5852 5853 5854 5855 5856 5856 5857 5858 5859 5859 5860 5860
5641 5645 5649 5653 5658 5662 5666 5669 5674 5678 5682 5687 5690 5694 5698 5702 5705 5708 5711 5715 5718 5721 5726 5731 5735 5740 5743 5747 5752 5755 5758 5762 5765 5768 5771 5774 5776 5779 5782 5784 5786 5789 5792 5795 5797 5800 5802 5803 5805 5808 5810 5812 5814 5816 5817 5819 5821 5823 5824 5826 5827 5829 5830 5831 5833 5834 5835 5836 5838 5839 5840 5844 5845 5845 5846 5847 5848 5851 5851 5852 5853 5854 5855 5855 5856 5857 5857 5857
5638 5641 5645 5650 5654 5658 5662 5666 5670 5675 5679 5683 5687 5691 5695 5698 5701 5704 5707 5710 5714 5717 5720 5725 5731 5736 5740 5745 5748 5752 5755 5759 5761 5764 5767 5770 5773 5776 5778 5780 5783 5786 5789 5791 5793 5795 5798 5799 5802 5805 5807 5809 5811 5813 5815 5816 5818 5820 5821 5823 5824 5826 5827 5829 5830 5831 5832 5833 5835 5836 5837 5840 5843 5843 5844 5845 5846 5847 5849 5850 5851 5851 5852 5853 5854 5855 5855 5855
5634 5637 5642 5646 5651 5655 5658 5662 5666 5671 5676 5680 5684 5688 5691 5694 5697 5700 5704 5706 5708 5712 5717 5721 5725 5730 5736 5741 5745 5748 5751 5755 5758 5761 5764 5767 5769 5772 5774 5777 5781 5783 5785 5787 5789 5792 5795 5797 5799 5801 5803 5806 5807 5809 5811 5813 5815 5816 5818 5820 5821 5823 5824 5825 5827 5828 5829 5830 5832 5833 5833 5836 5840 5841 5841 5843 5843 5844 5846 5847 5848 5849 5850 5851 5852 5852 5852 5853
5631 5634 5638 5643 5647 5651 5655 5659 5663 5668 5672 5676 5681 5684 5687 5690 5693 5697 5700 5701 5702 5708 5714 5718 5722 5727 5733 5737 5741 5745 5748 5752 5756 5758 5761 5764 5767 5769 5772 5775 5777 5780 5782 5784 5787 5790 5792 5795 5797 5799 5801 5803 5805 5807 5808 5810 5812 5813 5815 5817 5818 5819 5820 5822 5823 5824 5826 5827 5829 5830 5831 5832 5837 5840 5840 5840 5841 5841 5843 5844 5845 5846 5847 5848 5849 5849 5849 5849
5628 5631 5635 5640 5644 5648 5652 5656 5660 5665 5669 5673 5677 5681 5683 5686 5689 5693 5696 5694 5697 5705 5711 5715 5720 5725 5729 5733 5737 5741 5745 5750 5753 5755 5758 5761 5763 5766 5769 5772 5774 5776 5779 5782 5785 5788 5790 5792 5794 5796 5798 5800 5802 5804 5805 5807 5808 5810 5812 5813 5814 5815 5817 5818 5820 5821 5823 5824 5826 5828 5829 5829 5833 5838 5838 5838 5839 5839 5840 5841 5842 5843 5844 5845 5846 5847 5847 5847
5624 5628 5632 5636 5640 5645 5649 5653 5656 5660 5664 5668 5672 5676 5679 5682 5685 5688 5689 5689 5695 5703 5708 5713 5718 5721 5725 5729 5734 5738 5743 5746 5748 5752 5756 5757 5760 5763 5766 5768 5770 5772 5775 5779 5781 5784 5786 5788 5790 5792 5794 5796 5798 5799 5801 5803 5804 5806 5808 5809 5810 5811 5813 5815 5817 5819 5820 5821 5823 5825 5826 5826 5828 5834 5836 5836 5836 5837 5837 5838 5839 5840 5840 5841 5842 5843 5844 5844
5621 5625 5629 5633 5638 5642 5646 5649 5652 5655 5660 5663 5667 5671 5674 5676 5679 5681 5682 5686 5693 5700 5706 5710 5715 5718 5721 5726 5730 5735 5739 5742 5745 5748 5750 5752 5756 5759 5761 5764 5766 5769 5772 5775 5777 5779 5782 5784 5785 5788 5790 5792 5794 5795 5797 5799 5801 5802 5804 5805 5807 5808 5810 5812 5813 5816 5816 5818 5820 5822 5823 5824 5824 5830 5834 5834 5834 5834 5834 5835 5835 5837 5837 5838 5839 5840 5840 5840
5618 5622 5626 5630 5635 5638 5642 5645 5648 5651 5655 5658 5663 5666 5668 5671 5674 5675 5679 5686 5691 5696 5701 5706 5711 5715 5719 5723 5727 5731 5735 5738 5741 5743 5746 5749 5752 5754 5757 5759 5762 5765 5768 5770 5773 5776 5778 5780 5782 5784 5787 5789 5791 5792 5794 5796 5798 5799 5801 5802 5804 5805 5806 5808 5810 5812 5812 5814 5817 5818 5820 5821 5821 5826 5831 5831 5831 5831 5831 5832 5833 5834 5835 5835 5836 5836 5836 5836
5615 5619 5623 5627 5631 5634 5638 5640 5644 5647 5650 5654 5657 5660 5663 5665 5666 5670 5679 5685 5687 5690 5698 5703 5708 5713 5717 5721 5724 5727 5731 5734 5737 5740 5743 5746 5749 5752 5755 5757 5760 5762 5765 5768 5771 5773 5775 5777 5779 5781 5784 5786 5788 5789 5791 5792 5794 5796 5797 5799 5800 5802 5803 5805 5806 5807 5809 5812 5813 5814 5817 5818 5819 5822 5826 5826 5828 5828 5829 5830 5830 5831 5831 5831 5832 5832 5832 5832
5611 5616 5619 5623 5627 5630 5633 5636 5640 5642 5645 5649 5652 5655 5658 5658 5662 5671 5678 5681 5682 5688 5696 5700 5705 5710 5713 5716 5719 5722 5726 5730 5734 5737 5739 5742 5745 5748 5751 5754 5757 5760 5764 5767 5769 5770 5773 5774 5777 5779 5781 5783 5784 5786 5788 5790 5792 5793 5795 5796 5797 5799 5799 5801 5802 5803 5805 5808 5809 5810 5813 5815 5817 5819 5820 5822 5825 5826 5826 5827 5827 5827 5827 5827 5827 5828 5829 5829
5608 5612 5615 5619 5622 5625 5629 5633 5635 5638 5641 5644 5647 5650 5652 5654 5663 5672 5674 5675 5679 5685 5691 5696 5701 5705 5707 5711 5715 5719 5722 5724 5728 5732 5734 5737 5740 5743 5747 5750 5753 5757 5760 5762 5764 5766 5769 5771 5774 5776 5778 5780 5782 5784 5785 5787 5788 5789 5790 5792 5793 5795 5796 5797 5798 5799 5801 5803 5804 5806 5808 5811 5815 5816 5816 5819 5821 5823 5823 5823 5823 5823 5823 5823 5823 5824 5825 5825
5605 5608 5611 5614 5618 5622 5626 5629 5631 5633 5635 5639 5642 5644 5647 5655 5664 5668 5668 5673 5678 5682 5687 5692 5696 5699 5702 5706 5710 5713 5717 5720 5724 5727 5729 5732 5736 5740 5745 5748 5751 5754 5756 5758 5760 5763 5765 5767 5771 5772 5774 5776 5777 5779 5780 5781 5782 5784 5786 5787 5790 5792 5792 5793 5794 5796 5798 5799 5800 5802 5804 5808 5812 5812 5812 5814 5817 5819 5819 5819 5818 5818 5818 5819 5819 5820 5821 5820
5601 5604 5607 5610 5614 5618 5622 5624 5627 5629 5631 5634 5636 5639 5648 5657 5662 5663 5665 5670 5675 5678 5682 5686 5690 5693 5697 5700 5704 5708 5712 5716 5720 5722 5725 5729 5733 5736 5741 5744 5747 5750 5754 5756 5758 5760 5762 5765 5767 5768 5770 5771 5772 5774 5775 5777 5778 5780 5782 5785 5787 5788 5789 5789 5790 5792 5793 5793 5795 5799 5801 5805 5808 5808 5809 5810 5811 5814 5814 5814 5814 5813 5813 5813 5814 5815 5816 5816
5597 5601 5604 5607 5611 5614 5617 5621 5623 5625 5627 5629 5632 5639 5650 5654 5655 5658 5662 5666 5671 5673 5676 5681 5685 5689 5693 5696 5700 5704 5708 5711 5713 5716 5721 5724 5727 5731 5737 5740 5743 5746 5750 5752 5754 5756 5758 5760 5761 5764 5765 5766 5768 5769 5770 5772 5774 5776 5779 5782 5783 5782 5783 5785 5786 5787 5788 5789 5793 5796 5798 5801 5803 5805 5806 5806 5806 5807 5808 5808 5809 5809 5809 5809 5809 5810 5810 5811
5593 5597 5601 5604 5608 5610 5613 5616 5618 5621 5623 5624 5630 5640 5646 5647 5648 5652 5658 5662 5666 5668 5671 5677 5681 5686 5690 5693 5698 5701 5704 5706 5709 5713 5716 5719 5722 5728 5733 5736 5739 5743 5744 5746 5748 5749 5752 5753 5754 5757 5759 5760 5762 5763 5765 5768 5771 5773 5775 5777 5777 5776 5779 5781 5782 5784 5785 5787 5790 5793 5795 5797 5799 5801 5802 5802 5801 5801 5801 5802 5803 5804 5805 5805 5806 5806 5805 5806
5589 5593 5596 5600 5604 5606 5608 5611 5614 5616 5618 5621 5629 5636 5639 5641 5643 5649 5654 5657 5660 5663 5667 5672 5677 5681 5685 5690 5694 5697 5699 5702 5706 5709 5712 5715 5719 5725 5729 5732 5735 5738 5739 5741 5742 5744 5746 5747 5748 5751 5753 5754 5756 5758 5761 5766 5768 5769 5771 5771 5772 5773 5775 5777 5779 5781 5782 5783 5785 5787 5789 5792 5795 5797 5797 5797 5797 5797 5797 5796 5796 5798 5800 5800 5801 5801 5801 5801
5586 5590 5592 5596 5600 5602 5604 5607 5609 5610 5613 5620 5628 5631 5634 5637 5639 5644 5649 5652 5655 5659 5662 5667 5673 5676 5680 5684 5688 5691 5694 5698 5702 5705 5708 5712 5717 5721 5725 5728 5731 5733 5734 5735 5736 5738 5740 5741 5742 5745 5746 5748 5751 5756 5760 5763 5763 5764 5765 5766 5768 5770 5772 5773 5774 5776 5777 5778 5779 5781 5783 5787 5790 5792 5792 5792 5792 5793 5793 5791 5790 5792 5793 5794 5794 5795 5795 5795
5583 5586 5589 5592 5595 5597 5599 5602 5603 5606 5613 5619 5623 5626 5629 5633 5636 5639 5643 5646 5650 5655 5658 5662 5667 5671 5675 5679 5682 5686 5689 5692 5696 5699 5702 5708 5713 5717 5721 5724 5726 5728 5727 5727 5729 5733 5735 5736 5738 5739 5740 5745 5750 5753 5755 5755 5756 5758 5759 5761 5764 5765 5766 5767 5767 5770 5772 5773 5774 5775 5777 5781 5785 5786 5786 5787 5787 5788 5789 5788 5786 5786 5786 5786 5787 5788 5788 5788
5578 5582 5586 5589 5591 5593 5595 5596 5599 5604 5610 5615 5618 5621 5624 5628 5632 5635 5638 5642 5646 5650 5653 5656 5660 5665 5669 5673 5676 5680 5683 5686 5690 5694 5698 5704 5709 5712 5715 5717 5719 5720 5720 5721 5725 5728 5729 5730 5731 5733 5736 5741 5743 5744 5747 5748 5749 5751 5753 5756 5759 5758 5760 5761 5761 5765 5766 5767 5770 5770 5770 5776 5780 5781 5782 5783 5782 5783 5784 5783 5782 5781 5781 5781 5780 5780 5780 5780
5573 5576 5581 5585 5587 5588 5590 5591 5594 5601 5606 5610 5614 5617 5620 5624 5628 5630 5634 5638 5641 5645 5648 5651 5654 5659 5663 5667 5671 5674 5678 5681 5684 5689 5694 5699 5703 5706 5707 5709 5712 5713 5713 5715 5718 5721 5721 5722 5724 5727 5730 5733 5734 5736 5739 5741 5742 5744 5747 5752 5753 5753 5755 5755 5756 5759 5758 5761 5766 5765 5765 5772 5775 5776 5779 5778 5777 5777 5777 5776 5775 5774 5775 5775 5775 5774 5774 5773
5566 5570 5574 5578 5581 5583 5584 5586 5590 5597 5602 5606 5609 5612 5615 5619 5623 5626 5629 5633 5636 5640 5643 5646 5649 5653 5658 5662 5665 5669 5673 5675 5678 5684 5688 5692 5696 5699 5700 5702 5705 5706 5708 5710 5713 5715 5714 5715 5718 5720 5721 5723 5725 5727 5731 5734 5737 5740 5743 5747 5747 5749 5749 5748 5750 5752 5751 5757 5761 5758 5761 5769 5771 5771 5773 5773 5771 5771 5770 5769 5769 5767 5768 5768 5768 5768 5768 5766
5560 5564 5568 5571 5574 5577 5579 5583 5587 5592 5596 5599 5603 5606 5610 5613 5617 5621 5624 5628 5631 5635 5638 5641 5644 5648 5652 5656 5660 5663 5666 5669 5674 5678 5682 5685 5689 5692 5693 5695 5698 5700 5703 5704 5706 5707 5706 5707 5711 5712 5713 5716 5720 5724 5729 5734 5735 5736 5739 5742 5742 5743 5742 5743 5745 5743 5744 5753 5754 5751 5757 5765 5767 5766 5766 5765 5765 5764 5763 5763 5763 5761 5760 5761 5760 5760 5759 5758
5554 5558 5561 5565 5568 5571 5575 5579 5583 5586 5589 5593 5597 5601 5605 5608 5612 5615 5618 5621 5625 5629 5632 5635 5639 5643 5646 5650 5654 5658 5660 5665 5669 5672 5676 5680 5683 5685 5687 5689 5692 5694 5696 5697 5697 5698 5697 5699 5703 5705 5707 5712 5718 5722 5726 5728 5728 5729 5733 5735 5735 5735 5736 5737 5735 5734 5742 5748 5745 5746 5754 5757 5760 5761 5758 5758 5758 5757 5757 5757 5755 5755 5753 5753 5753 5752 5751 5750
5548 5552 5556 5559 5562 5565 5569 5574 5577 5581 5585 5588 5591 5595 5600 5603 5606 5608 5611 5615 5619 5623 5626 5629 5633 5637 5640 5644 5648 5652 5655 5659 5662 5666 5671 5673 5676 5678 5680 5683 5685 5687 5689 5689 5689 5690 5690 5692 5697 5700 5703 5709 5714 5714 5715 5717 5718 5720 5724 5724 5725 5727 5727 5726 5725 5731 5740 5736 5733 5744 5749 5747 5753 5754 5750 5753 5753 5750 5750 5749 5748 5748 5747 5747 5747 5744 5743 5742
5542 5546 5550 5553 5556 5560 5565 5570 5574 5578 5581 5583 5585 5589 5593 5596 5598 5602 5607 5610 5613 5617 5620 5623 5628 5632 5636 5639 5642 5645 5649 5652 5655 5660 5664 5666 5669 5671 5673 5675 5677 5679 5682 5682 5682 5683 5683 5686 5692 5695 5697 5703 5706 5705 5705 5708 5710 5712 5714 5715 5717 5718 5717 5717 5720 5728 5731 5724 5728 5742 5741 5738 5747 5747 5744 5748 5747 5742 5742 5741 5740 5741 5741 5740 5739 5737 5736 5736
5537 5540 5543 5547 5550 5555 5561 5565 5568 5571 5574 5577 5579 5582 5586 5590 5593 5598 5602 5604 5607 5611 5615 5619 5624 5627 5629 5632 5635 5638 5642 5646 5650 5654 5657 5659 5661 5664 5667 5668 5669 5672 5674 5674 5676 5677 5677 5681 5686 5688 5689 5695 5696 5696 5698 5700 5701 5703 5705 5707 5709 5710 5710 5713 5716 5722 5722 5717 5724 5734 5730 5731 5741 5740 5738 5742 5739 5735 5736 5733 5732 5734 5734 5733 5730 5729 5730 5729
5531 5534 5537 5541 5545 5549 5554 5557 5560 5563 5567 5570 5573 5578 5582 5585 5589 5593 5597 5599 5603 5607 5611 5616 5619 5620 5622 5625 5628 5632 5637 5642 5646 5647 5649 5652 5654 5657 5660 5661 5663 5666 5667 5668 5670 5671 5672 5676 5680 5681 5682 5684 5687 5689 5691 5691 5692 5694 5696 5698 5701 5703 5704 5707 5710 5715 5714 5711 5718 5724 5720 5725 5734 5733 5733 5735 5731 5729 5729 5726 5726 5727 5725 5723 5721 5721 5722 5721
5524 5527 5531 5534 5538 5542 5546 5550 5553 5556 5559 5564 5570 5576 5579 5582 5586 5589 5590 5593 5597 5601 5606 5611 5613 5613 5616 5618 5622 5628 5633 5635 5636 5638 5641 5643 5645 5648 5650 5652 5655 5659 5660 5662 5663 5664 5667 5670 5673 5675 5673 5675 5681 5683 5682 5685 5685 5683 5685 5691 5695 5698 5700 5702 5704 5707 5706 5707 5712 5712 5712 5721 5728 5726 5726 5726 5723 5721 5720 5720 5721 5719 5716 5715 5714 5714 5715 5715
5518 5521 5525 5528 5530 5534 5539 5543 5545 5548 5554 5561 5568 5572 5574 5578 5581 5581 5582 5586 5590 5595 5601 5604 5605 5606 5609 5613 5620 5625 5626 5626 5629 5632 5633 5634 5636 5640 5641 5644 5647 5650 5652 5654 5655 5657 5661 5663 5667 5669 5666 5670 5676 5676 5676 5678 5673 5670 5679 5690 5693 5694 5695 5695 5697 5700 5701 5702 5703 5702 5707 5716 5717 5716 5717 5716 5713 5712 5712 5713 5712 5710 5709 5709 5709 5709 5710 5711